CANN01 YAMB-YAMB

Flight info

Callsign CANN01
Flight time 0h 42m
Altitude 10000
Route DCT
Aircraft F18S/M-V/N

Departure

Time 2026-04-25 09:26
Airport RAAF Base Amberley (YAMB)

Arrival

Time 2026-04-25 10:09
Airport RAAF Base Amberley (YAMB)
Time Latitude Longitude Altitude Speed Heading
2026-04-25 09:14 -27.63114 152.70496 91 ft 0 kts 348°
2026-04-25 09:18 -27.63387 152.70645 92 ft 0 kts 157°
2026-04-25 09:18 -27.63112 152.70497 91 ft 0 kts 353°
2026-04-25 09:23 -27.63110 152.70496 91 ft 1 kts 353°
2026-04-25 09:23 -27.63095 152.70495 91 ft 4 kts 357°
2026-04-25 09:24 -27.63062 152.70534 91 ft 11 kts 69°
2026-04-25 09:24 -27.63024 152.70603 91 ft 10 kts
2026-04-25 09:24 -27.62954 152.70635 93 ft 15 kts 33°
2026-04-25 09:24 -27.62839 152.70601 90 ft 21 kts 338°
2026-04-25 09:25 -27.62688 152.70535 90 ft 26 kts 338°
2026-04-25 09:25 -27.62503 152.70454 89 ft 31 kts 338°
2026-04-25 09:25 -27.62310 152.70368 88 ft 22 kts 340°
2026-04-25 09:25 -27.62200 152.70474 89 ft 26 kts 70°
2026-04-25 09:26 -27.62314 152.70589 90 ft 28 kts 158°
2026-04-25 09:26 -27.62857 152.70828 95 ft 188 kts 158°
2026-04-25 09:26 -27.64810 152.71677 520 ft 391 kts 158°
2026-04-25 09:26 -27.67675 152.72173 1984 ft 453 kts 190°
2026-04-25 09:27 -27.69985 152.69892 3130 ft 474 kts 261°
2026-04-25 09:27 -27.68436 152.67039 3974 ft 467 kts 345°
2026-04-25 09:27 -27.65071 152.66061 4136 ft 534 kts 346°
2026-04-25 09:27 -27.61264 152.64958 4257 ft 591 kts 346°
2026-04-25 09:28 -27.57134 152.63772 4456 ft 630 kts 346°
2026-04-25 09:28 -27.52863 152.62553 4002 ft 650 kts 346°
2026-04-25 09:28 -27.48498 152.61271 4264 ft 648 kts 346°
2026-04-25 09:28 -27.44120 152.60025 4255 ft 650 kts 347°
2026-04-25 09:29 -27.39745 152.58778 4428 ft 648 kts 346°
2026-04-25 09:29 -27.35389 152.57476 4612 ft 648 kts 346°
2026-04-25 09:29 -27.31055 152.56076 4706 ft 648 kts 341°
2026-04-25 09:29 -27.26947 152.53972 4703 ft 650 kts 329°
2026-04-25 09:30 -27.23101 152.51299 4611 ft 652 kts 328°
2026-04-25 09:30 -27.19066 152.49266 4536 ft 644 kts 352°
2026-04-25 09:30 -27.14787 152.50204 4709 ft 638 kts 33°
2026-04-25 09:30 -27.12340 152.54162 4714 ft 634 kts 82°
2026-04-25 09:31 -27.13355 152.58890 4708 ft 639 kts 122°
2026-04-25 09:31 -27.15956 152.62973 4461 ft 646 kts 126°
2026-04-25 09:31 -27.18628 152.67034 4169 ft 646 kts 126°
2026-04-25 09:31 -27.21338 152.71059 4200 ft 645 kts 127°
2026-04-25 09:32 -27.24072 152.74967 4230 ft 646 kts 128°
2026-04-25 09:32 -27.27090 152.78704 3873 ft 648 kts 133°
2026-04-25 09:32 -27.30145 152.82411 3619 ft 643 kts 133°
2026-04-25 09:32 -27.33208 152.86065 2872 ft 643 kts 132°
2026-04-25 09:33 -27.36147 152.89831 2435 ft 639 kts 128°
2026-04-25 09:33 -27.38834 152.93796 2354 ft 635 kts 126°
2026-04-25 09:33 -27.41513 152.97742 2372 ft 635 kts 127°
2026-04-25 09:33 -27.42746 153.02203 2515 ft 624 kts 74°
2026-04-25 09:34 -27.39782 153.05587 2024 ft 635 kts 29°
2026-04-25 09:34 -27.35932 153.07879 1829 ft 620 kts 28°
2026-04-25 09:34 -27.32956 153.09636 1590 ft 346 kts 27°
2026-04-25 09:34 -27.31363 153.10650 1579 ft 203 kts 53°
2026-04-25 09:35 -27.31478 153.11713 1078 ft 139 kts 156°
2026-04-25 09:35 -27.32533 153.12043 622 ft 273 kts 154°
2026-04-25 09:35 -27.34109 153.13431 618 ft 248 kts 137°
2026-04-25 09:35 -27.35469 153.14172 484 ft 200 kts 174°
2026-04-25 09:36 -27.36646 153.13887 217 ft 145 kts 204°
2026-04-25 09:36 -27.37523 153.13394 63 ft 152 kts 205°
2026-04-25 09:36 -27.38213 153.13004 19 ft 53 kts 206°
2026-04-25 09:36 -27.38407 153.12894 19 ft 28 kts 207°
2026-04-25 09:37 -27.38530 153.12951 18 ft 3 kts 116°
2026-04-25 09:41 -27.38540 153.12974 18 ft 9 kts 116°
2026-04-25 09:41 -27.38526 153.13074 18 ft 20 kts 28°
2026-04-25 09:42 -27.38413 153.13177 18 ft 19 kts 78°
2026-04-25 09:42 -27.38305 153.13218 18 ft 23 kts 27°
2026-04-25 09:42 -27.38167 153.13200 17 ft 24 kts 296°
2026-04-25 09:42 -27.38149 153.13160 17 ft 0 kts 296°
2026-04-25 09:43 -27.38142 153.13145 17 ft 7 kts 296°
2026-04-25 09:44 -27.38112 153.13077 18 ft 10 kts 289°
2026-04-25 09:44 -27.38135 153.13048 18 ft 0 kts 207°
2026-04-25 09:44 -27.38767 153.12688 32 ft 227 kts 206°
2026-04-25 09:45 -27.40935 153.11557 1042 ft 410 kts 193°
2026-04-25 09:45 -27.43507 153.12572 3806 ft 432 kts 139°
2026-04-25 09:45 -27.46034 153.14958 4333 ft 516 kts 139°
2026-04-25 09:45 -27.48927 153.17724 4368 ft 587 kts 139°
2026-04-25 09:46 -27.52172 153.20840 4296 ft 636 kts 139°
2026-04-25 09:46 -27.55734 153.23896 4200 ft 648 kts 149°
2026-04-25 09:46 -27.59816 153.26122 3689 ft 655 kts 158°
2026-04-25 09:46 -27.64036 153.28058 3123 ft 649 kts 157°
2026-04-25 09:47 -27.68031 153.30138 3392 ft 625 kts 153°
2026-04-25 09:47 -27.71901 153.32285 2783 ft 611 kts 153°
2026-04-25 09:47 -27.75651 153.34381 2453 ft 590 kts 153°
2026-04-25 09:47 -27.79130 153.36783 2515 ft 590 kts 142°
2026-04-25 09:48 -27.82926 153.37800 2659 ft 589 kts 196°
2026-04-25 09:48 -27.85451 153.34452 1921 ft 594 kts 263°
2026-04-25 09:48 -27.83303 153.30824 1396 ft 576 kts 310°
2026-04-25 09:48 -27.80779 153.27244 1324 ft 590 kts 306°
2026-04-25 09:49 -27.77495 153.24452 1993 ft 613 kts 332°
2026-04-25 09:49 -27.73638 153.22153 2972 ft 638 kts 334°
2026-04-25 09:49 -27.69556 153.20082 3565 ft 648 kts 339°
2026-04-25 09:49 -27.65298 153.18370 3624 ft 652 kts 343°
2026-04-25 09:50 -27.60905 153.17098 3605 ft 650 kts 349°
2026-04-25 09:50 -27.56517 153.16180 3634 ft 652 kts 349°
2026-04-25 09:50 -27.52075 153.15143 3302 ft 654 kts 349°
2026-04-25 09:50 -27.47590 153.14588 2290 ft 646 kts 15°
2026-04-25 09:51 -27.43617 153.16942 1597 ft 649 kts 31°
2026-04-25 09:51 -27.39924 153.19701 1843 ft 631 kts 30°
2026-04-25 09:51 -27.36166 153.18775 1712 ft 621 kts 288°
2026-04-25 09:51 -27.38546 153.15658 1221 ft 606 kts 204°
2026-04-25 09:52 -27.42003 153.12817 1099 ft 623 kts 223°
2026-04-25 09:52 -27.43915 153.08617 1042 ft 629 kts 261°
2026-04-25 09:52 -27.46635 153.05736 1155 ft 585 kts 220°
2026-04-25 09:52 -27.50131 153.04455 3015 ft 547 kts 174°
2026-04-25 09:53 -27.53953 153.04733 4423 ft 554 kts 176°
2026-04-25 09:53 -27.57713 153.04952 5038 ft 533 kts 176°
2026-04-25 09:53 -27.61377 153.05184 5603 ft 520 kts 176°
2026-04-25 09:53 -27.64964 153.05425 6008 ft 512 kts 175°
2026-04-25 09:54 -27.68485 153.05659 6542 ft 504 kts 180°
2026-04-25 09:54 -27.70921 153.03464 5991 ft 479 kts 261°
2026-04-25 09:54 -27.69510 153.00467 4851 ft 455 kts 340°
2026-04-25 09:54 -27.66674 153.01626 2093 ft 488 kts 46°
2026-04-25 09:55 -27.63963 153.03968 1167 ft 500 kts 11°
2026-04-25 09:55 -27.60531 153.04279 1788 ft 477 kts
2026-04-25 09:55 -27.57218 153.04518 2476 ft 480 kts
2026-04-25 09:55 -27.53874 153.04717 2925 ft 481 kts
2026-04-25 09:56 -27.50536 153.04961 3437 ft 481 kts
2026-04-25 09:56 -27.47225 153.05369 3955 ft 479 kts 14°
2026-04-25 09:56 -27.44013 153.06577 3645 ft 495 kts 23°
2026-04-25 09:56 -27.40802 153.07796 3726 ft 494 kts
2026-04-25 09:57 -27.37572 153.06657 3442 ft 502 kts 327°
2026-04-25 09:57 -27.34728 153.04364 3688 ft 501 kts 324°
2026-04-25 09:57 -27.31568 153.03416 3641 ft 477 kts 21°
2026-04-25 09:57 -27.30006 153.06213 3122 ft 453 kts 107°
2026-04-25 09:58 -27.32605 153.07378 2172 ft 464 kts 187°
2026-04-25 09:58 -27.35915 153.06910 1647 ft 488 kts 189°
2026-04-25 09:58 -27.39212 153.05845 1499 ft 500 kts 196°
2026-04-25 09:58 -27.41968 153.04209 1805 ft 455 kts 258°
2026-04-25 09:59 -27.40366 153.01507 1651 ft 438 kts 302°
2026-04-25 09:59 -27.41533 152.99905 1428 ft 350 kts 143°
2026-04-25 09:59 -27.43605 153.01663 1247 ft 396 kts 145°
2026-04-25 09:59 -27.46116 153.03498 1116 ft 501 kts 149°
2026-04-25 10:00 -27.49476 153.05245 2628 ft 540 kts 155°
2026-04-25 10:00 -27.52659 153.07370 4737 ft 528 kts 145°
2026-04-25 10:00 -27.55734 153.09776 5341 ft 554 kts 140°
2026-04-25 10:00 -27.58327 153.13139 4858 ft 586 kts 124°
2026-04-25 10:01 -27.60376 153.17224 3996 ft 611 kts 116°
2026-04-25 10:01 -27.62201 153.21538 3318 ft 624 kts 114°
2026-04-25 10:01 -27.64345 153.25804 2857 ft 628 kts 124°
2026-04-25 10:01 -27.67110 153.29596 2800 ft 625 kts 138°
2026-04-25 10:02 -27.71156 153.30773 2733 ft 626 kts 197°
2026-04-25 10:02 -27.73172 153.26952 2146 ft 623 kts 285°
2026-04-25 10:02 -27.70390 153.23291 1793 ft 625 kts 312°
2026-04-25 10:02 -27.67875 153.19241 1124 ft 637 kts 307°
2026-04-25 10:03 -27.64799 153.15672 1094 ft 634 kts 318°
2026-04-25 10:03 -27.61215 153.12907 1615 ft 622 kts 335°
2026-04-25 10:03 -27.57978 153.10345 4775 ft 575 kts 313°
2026-04-25 10:03 -27.55518 153.06687 4956 ft 594 kts 307°
2026-04-25 10:04 -27.54324 153.02447 4443 ft 605 kts 250°
2026-04-25 10:04 -27.55813 152.97945 4196 ft 620 kts 249°
2026-04-25 10:04 -27.57335 152.93363 3911 ft 628 kts 249°
2026-04-25 10:04 -27.58832 152.88722 3777 ft 631 kts 250°
2026-04-25 10:05 -27.60071 152.83971 3659 ft 633 kts 255°
2026-04-25 10:05 -27.61217 152.79173 3255 ft 637 kts 252°
2026-04-25 10:05 -27.62457 152.74584 2533 ft 562 kts 272°
2026-04-25 10:05 -27.60034 152.72510 2034 ft 424 kts 338°
2026-04-25 10:06 -27.59730 152.70353 1508 ft 303 kts 204°
2026-04-25 10:06 -27.61611 152.70537 742 ft 262 kts 157°
2026-04-25 10:06 -27.63398 152.71222 921 ft 312 kts 187°
2026-04-25 10:06 -27.63730 152.69213 1013 ft 314 kts 322°
2026-04-25 10:07 -27.62250 152.68298 1169 ft 190 kts 335°
2026-04-25 10:07 -27.61235 152.67760 1148 ft 129 kts 340°
2026-04-25 10:07 -27.60452 152.68102 1003 ft 163 kts 70°
2026-04-25 10:07 -27.60347 152.69440 817 ft 158 kts 129°
2026-04-25 10:08 -27.61140 152.70055 389 ft 119 kts 152°
2026-04-25 10:08 -27.62075 152.70485 156 ft 194 kts 157°
2026-04-25 10:08 -27.63164 152.70954 100 ft 137 kts 158°
2026-04-25 10:08 -27.64041 152.71346 96 ft 379 kts 158°
2026-04-25 10:09 -27.64746 152.71579 96 ft 0 kts 251°
2026-04-25 10:09 -27.64752 152.71559 96 ft 10 kts 250°
2026-04-25 10:09 -27.64732 152.71433 96 ft 26 kts 330°
2026-04-25 10:09 -27.64509 152.71335 95 ft 42 kts 339°
2026-04-25 10:10 -27.64213 152.71206 97 ft 45 kts 339°
2026-04-25 10:10 -27.63928 152.71078 94 ft 42 kts 338°
2026-04-25 10:10 -27.63682 152.70975 93 ft 32 kts 339°
2026-04-25 10:10 -27.63483 152.70887 93 ft 29 kts 341°
2026-04-25 10:11 -27.63300 152.70806 95 ft 27 kts 336°
2026-04-25 10:11 -27.63182 152.70755 91 ft 10 kts 339°
2026-04-25 10:11 -27.63175 152.70694 93 ft 8 kts 262°
2026-04-25 10:11 -27.63145 152.70658 91 ft 6 kts 341°
2026-04-25 10:12 -27.63108 152.70642 93 ft 5 kts 324°
2026-04-25 10:12 -27.63102 152.70613 93 ft 4 kts 245°
2026-04-25 10:12 -27.63109 152.70578 91 ft 3 kts 307°
2026-04-25 10:13 -27.63084 152.70558 93 ft 6 kts 328°
2026-04-25 10:13 -27.63085 152.70523 91 ft 9 kts 184°
2026-04-25 10:13 -27.63103 152.70521 91 ft 0 kts 187°